Location: Sevilla
(37.3933°N, 5.9839°W)
Time: 04:33:07
(UTC+02:00)

Transit 2A Rocket - Pass Details

Date: 27 June 2024
Orbit: 582 x 910 km, 66.7° (Epoch: 15 July)

Event Time Altitude Azimuth Distance (km) Brightness Sun altitude
Rises 08:13:33 0° 310° (NW) 3,543 8.2 11.4°
Reaches altitude 10° 08:17:28 10° 286° (WNW) 2,592 7.3 12.1°
Maximum altitude 08:20:15 14° 258° (WSW) 2,326 7.0 12.6°
Drops below altitude 10° 08:23:01 10° 230° (SW) 2,548 7.2 13.1°
Sets 08:26:50 0° 206° (SSW) 3,434 8.0 13.8°
